Temp_Advection
nan nan nan nan nan nan nan nan nan nan nan nan nan nan nan nan nan nan nan nan nan nan nan nan nan nan nan nan nan nan nan nan nan nan nan nan nan nan nan nan nan nan nan nan
nan 0 -0 0 0 -0 -1 -0 -0 0 -0 -0 -0 -0 -0 -0 -0 -0 -0 -0 -0 -0 -0 -0 -0 0 0 0 0 0 0 0 0 0 0 0 0 0 0 -0 -0 -0 -0 nan
nan 0 0 -0 0 -0 -0 0 -0 -0 -0 0 0 -0 -0 -0 -0 -1 -1 -0 -0 -0 -0 0 0 0 0 0 0 0 0 0 0 0 0 0 0 0 0 0 -0 0 -0 nan
nan -0 -0 -0 0 0 -0 -0 0 -0 -0 0 -0 -0 -0 -0 -0 -0 -0 -0 -0 -0 0 0 0 0 0 0 0 0 0 0 0 0 0 0 0 0 0 0 0 0 0 nan
nan -0 -0 -0 -0 -0 -0 -0 -0 -0 0 0 0 0 0 0 0 -0 -0 -0 0 0 0 1 1 1 0 0 0 0 0 0 0 0 0 0 0 0 0 0 0 0 0 nan
nan 0 0 -0 -0 -0 -0 0 -0 -0 0 0 0 -0 -0 -0 0 0 0 -0 -0 0 1 1 1 1 0 1 0 0 0 0 0 0 0 0 0 0 0 0 0 0 0 nan
nan 0 -0 -0 -0 0 0 0 -0 -0 -0 -0 -0 -0 -0 0 -0 -0 -0 -0 -0 0 0 1 1 0 1 1 1 1 0 0 0 0 0 0 0 0 0 0 0 0 0 nan
nan 0 -0 -0 0 0 0 0 -0 0 -0 -0 -0 -0 -0 -0 -0 -0 -0 0 0 0 0 1 0 1 1 1 1 0 0 0 0 0 0 0 0 0 0 0 0 0 0 nan
nan -0 -0 -0 -0 -0 0 0 0 0 0 0 0 0 0 0 -0 -0 -0 0 0 0 0 0 0 0 0 0 0 0 0 0 0 0 0 0 0 0 0 0 0 0 0 nan
nan -0 -0 0 0 0 0 0 -0 0 -0 0 0 0 0 0 0 0 0 0 0 0 0 0 0 0 0 0 0 0 0 0 0 0 0 0 0 0 0 0 0 -0 -0 nan
nan -0 -0 -0 0 0 0 0 0 0 0 -0 -0 -0 -0 0 0 0 0 0 0 0 0 0 0 0 0 0 0 0 0 0 -0 0 0 0 0 0 0 0 0 -0 0 nan
nan -0 -0 -0 0 0 0 0 0 0 -0 -0 -0 -0 -0 -0 -0 -0 0 0 0 0 0 0 0 0 0 0 0 0 0 -0 -0 0 0 0 0 0 0 0 0 0 0 nan
nan -0 0 0 0 0 0 -0 -0 -0 -0 -0 -0 -0 -0 -0 -0 -0 -0 0 0 0 0 0 0 0 0 0 0 0 0 0 0 0 0 0 0 -0 0 -0 -0 -0 -0 nan
nan 0 -0 0 0 0 0 0 0 -0 -0 -0 -0 -0 -0 -0 -0 -0 -0 0 0 0 0 0 0 0 0 0 0 0 0 0 0 0 0 0 0 0 0 -0 -0 -0 0 nan
nan 0 0 0 0 0 0 0 -0 -0 -0 -0 -0 -0 -0 -0 -0 -0 -0 -0 0 0 0 0 0 0 0 0 0 0 0 0 0 0 0 0 0 1 0 0 0 0 -0 nan
nan 0 0 0 0 0 -0 -0 -0 -0 -0 -0 -0 -0 -0 -0 -0 -0 -0 -0 -0 0 0 0 0 0 0 0 0 0 0 0 0 0 0 0 1 1 -0 -0 -0 -0 -1 nan
nan 0 0 0 0 0 -0 -0 -0 -0 -0 -0 -0 -0 -0 -0 -0 0 -0 -0 -0 -0 -0 -0 0 0 0 0 0 0 0 0 0 0 0 1 1 -0 -1 -1 -1 -1 -0 nan
nan 0 0 0 0 0 0 0 -0 -0 -0 -0 -0 -0 -0 -1 -1 -0 0 -0 -0 0 0 -0 -0 0 0 0 0 0 0 1 0 0 0 0 0 -0 -0 -0 -0 -0 -0 nan
nan 0 0 0 -0 -0 -0 -0 -0 -0 -0 -0 -0 -0 -0 -0 -1 -1 -1 -1 -1 -0 0 0 -0 -0 0 0 0 0 0 0 0 0 0 0 -0 -0 0 -0 -1 -1 -0 nan
nan 0 0 0 -0 -0 -0 -0 -0 -0 -0 -0 -0 -0 -0 -0 -0 -0 -0 -0 -1 -1 -0 -0 -0 -0 -0 0 0 0 0 0 0 -0 0 0 0 -0 -0 -0 -0 -0 -0 nan
nan 0 0 -0 -0 0 -0 -0 -0 -0 -0 -0 -0 -0 -0 -0 -0 -0 -0 -0 -0 -0 -0 -0 -0 -0 -0 -0 0 0 0 0 0 0 0 0 0 0 -0 0 0 0 -0 nan
nan -0 -0 -0 -0 -0 -0 -0 -0 -0 -0 -0 -0 -0 -0 -0 -0 -0 -0 -0 -0 -0 -0 -0 -0 -0 -0 -0 -0 0 0 -0 0 0 0 -0 -0 -0 -0 0 -0 -0 -0 nan
nan -0 -0 -0 -0 -0 -0 -0 -0 -0 -0 -0 -0 -0 -0 -0 -0 -0 -0 -0 -0 -0 -0 -0 -0 -0 -0 -0 -0 -0 0 -0 -0 -0 -0 -0 -0 -0 -0 -0 -0 -0 -0 nan
nan -0 -0 -0 -0 0 -0 -0 -0 -0 -0 -0 -0 -0 -0 -0 -0 -0 -0 -0 -0 -0 -0 -0 -0 -0 -0 -0 -0 -0 -0 0 0 -0 -0 0 -0 -0 -0 -0 -0 -1 -0 nan
nan -0 -0 -0 -0 0 0 0 0 0 0 0 -0 -0 -0 -0 -0 -0 0 0 -0 -0 -0 -0 -0 -0 -0 -0 -0 -0 -0 0 0 -0 -0 -0 -0 -0 -0 -0 -0 -0 -0 nan
nan -0 -0 -0 -0 -0 -0 -0 -0 -0 -0 0 0 0 0 0 -0 -0 -0 -0 -0 -0 -0 -0 -1 -0 -0 -0 -0 -0 -0 0 0 0 0 -0 -0 -0 -0 -0 -0 -0 -0 nan
nan nan nan nan nan nan nan nan nan nan nan nan nan nan nan nan nan nan nan nan nan nan nan nan nan nan nan nan nan nan nan nan nan nan nan nan nan nan nan nan nan nan nan nan
Wind_Speed
4 7 8 14 14 11 4 4 6 4 6 6 5 5 5 11 12 15 16 17 17 16 15 15 15 14 13 11 10 8 7 7 7 7 10 12 13 13 14 13 11 11 9 10
4 4 5 8 10 14 13 4 5 2 4 5 4 4 7 12 14 18 20 20 18 16 15 15 14 13 12 11 10 9 8 8 7 8 9 10 8 8 8 8 8 8 8 8
2 1 5 1 11 15 6 5 12 7 7 1 1 4 10 12 15 20 21 18 17 17 16 16 15 14 13 12 12 11 10 9 8 7 7 7 7 8 7 8 7 9 9 8
2 1 2 1 2 8 8 6 6 3 4 5 5 6 8 11 15 18 15 14 16 18 18 18 17 16 15 15 14 13 13 11 9 8 8 8 8 8 8 8 8 9 9 8
4 3 4 2 2 4 6 5 6 5 4 2 4 6 2 6 9 10 12 14 16 18 21 21 21 19 17 15 15 14 14 13 12 9 9 9 8 7 8 9 9 9 8 8
2 2 1 2 2 1 3 4 3 10 7 6 8 3 3 5 5 7 9 11 13 15 18 21 23 21 18 17 16 15 14 12 12 11 10 11 10 10 10 10 10 10 11 9
2 1 3 3 3 1 3 3 2 7 9 11 3 4 7 4 0 3 6 8 10 12 12 15 19 19 17 16 16 13 14 14 13 12 12 12 12 12 12 12 12 13 13 12
1 2 0 4 1 3 2 3 3 9 9 7 7 8 6 5 7 6 6 6 6 6 7 12 15 15 15 15 13 15 15 14 13 13 11 13 14 14 14 13 14 15 14 14
3 3 3 3 2 1 1 5 6 8 6 5 7 6 5 1 2 5 8 8 8 8 10 12 13 14 14 13 15 15 16 16 16 16 14 14 15 16 16 16 15 15 15 15
2 1 1 2 3 4 5 6 6 5 4 3 3 2 3 4 6 5 6 8 9 11 13 13 12 13 13 15 15 15 16 16 18 18 16 16 17 17 17 17 17 17 17 16
3 3 0 1 3 4 6 6 5 4 3 2 1 1 2 3 5 6 7 7 8 9 9 10 12 13 14 15 17 17 17 17 18 18 18 17 17 17 17 15 14 14 14 14
3 3 1 1 5 4 4 5 5 3 2 2 2 2 3 5 5 6 6 7 7 7 9 10 11 12 14 14 16 18 18 18 19 18 20 18 18 18 18 17 17 17 17 15
2 2 2 4 5 4 3 3 2 2 3 3 4 4 5 5 6 6 6 6 7 7 9 10 11 12 12 13 14 17 18 19 19 20 21 21 21 21 21 21 22 20 18 17
3 5 4 5 2 3 3 2 2 2 3 4 5 6 7 8 7 7 7 7 8 9 10 11 12 11 11 12 14 15 17 18 19 21 21 21 21 21 20 22 20 20 19 17
1 1 0 2 5 4 2 1 1 2 3 5 7 8 9 10 11 9 9 10 10 10 10 11 13 11 11 12 13 15 17 18 19 20 20 20 21 20 21 22 21 20 19 19
2 1 1 2 3 3 3 5 6 6 6 6 8 10 11 12 13 12 11 12 12 11 10 11 11 9 12 12 12 14 16 17 18 18 20 21 22 22 23 24 23 22 21 19
3 2 2 3 2 3 4 5 6 8 9 11 12 13 15 14 13 12 12 13 13 13 12 13 12 12 12 14 13 13 14 16 18 20 22 23 24 25 25 25 25 24 22 19
2 3 3 4 5 6 7 8 9 10 11 12 12 13 13 13 14 15 14 13 12 13 16 18 15 15 14 14 15 15 15 16 20 22 24 26 26 26 27 27 27 26 24 22
4 4 5 5 5 6 7 7 8 8 9 10 11 12 12 12 13 14 14 14 14 16 16 18 16 16 14 15 15 16 17 18 21 24 25 26 28 29 29 29 29 29 28 26
3 2 2 1 1 2 2 4 5 6 7 8 9 10 10 11 11 12 11 11 11 11 12 12 12 12 14 15 15 17 19 20 22 25 28 29 31 32 32 32 31 32 32 31
3 2 2 2 3 3 4 6 6 7 8 9 9 10 11 11 12 11 9 8 9 11 12 12 12 13 16 17 18 20 20 21 23 26 28 30 33 35 36 36 36 35 35 35
2 2 2 2 2 4 6 7 7 8 8 8 9 10 10 10 9 9 10 9 11 12 12 12 12 13 15 16 18 20 22 24 25 27 29 30 31 34 36 38 40 40 39 38
1 1 2 4 5 6 7 8 8 8 8 9 10 10 11 13 13 11 10 11 13 13 13 13 12 12 13 15 17 19 21 23 26 27 29 30 31 33 34 35 35 35 36 38
2 2 3 4 6 6 6 7 8 8 9 10 11 12 13 11 10 11 13 14 14 15 15 15 15 15 14 14 15 17 19 20 22 24 26 27 28 29 31 32 33 34 34 34
6 2 4 5 6 6 7 7 7 8 9 10 10 11 12 15 15 15 15 16 16 16 15 15 16 16 16 16 16 16 17 18 19 20 22 24 25 27 28 29 29 30 31 32
3 2 6 6 6 6 7 8 8 9 9 10 10 12 12 14 15 16 16 17 18 18 18 18 19 19 18 17 18 18 18 19 19 20 21 22 23 24 25 26 26 27 27 28
3 3 7 7 7 7 8 9 9 9 11 13 13 14 16 17 17 18 18 19 19 19 19 19 20 20 21 21 21 20 20 20 21 21 21 22 23 24 24 24 25 25 25 25
Wind_Direction
276 231 169 175 177 170 149 182 162 214 217 286 286 262 207 187 179 181 189 195 196 194 195 198 202 203 202 209 217 226 238 250 265 281 287 286 278 273 269 261 256 258 255 261
28 49 117 185 184 188 196 182 271 187 250 225 297 159 174 180 184 195 199 204 205 205 209 214 218 218 219 222 228 232 243 253 270 288 294 291 278 265 254 248 243 241 241 237
335 24 112 203 204 189 181 168 199 206 225 296 195 219 207 198 205 212 213 214 219 221 224 227 227 230 232 231 232 238 242 244 256 272 282 267 262 251 244 233 224 223 218 211
148 37 200 239 282 179 196 171 197 178 197 213 225 215 231 222 224 222 225 235 243 238 235 234 230 229 229 231 234 239 235 233 237 245 246 240 237 234 226 220 211 206 200 194
145 193 280 9 50 130 163 261 201 205 220 160 145 142 128 186 214 229 243 250 253 254 252 244 234 229 230 234 240 243 244 243 238 232 241 229 213 211 204 202 197 191 193 199
162 114 32 304 329 250 139 298 243 180 184 160 147 127 254 199 222 243 251 254 254 253 250 236 229 225 229 236 239 240 240 239 239 228 223 218 216 209 210 202 203 197 194 189
47 82 310 273 320 73 117 253 355 182 164 148 155 158 133 120 274 284 278 265 259 254 241 227 216 220 231 239 243 239 232 226 227 227 224 221 222 218 210 207 204 199 192 182
103 70 2 2 34 146 247 354 146 141 149 144 134 132 112 55 8 316 282 271 248 227 207 200 211 227 239 243 240 235 230 227 224 219 223 227 221 216 208 204 202 199 192 184
169 214 264 318 294 337 68 98 97 122 129 145 153 170 174 189 339 332 322 272 249 229 221 221 226 238 241 240 239 236 230 224 228 232 214 220 223 213 207 201 202 203 195 189
30 286 311 73 79 103 114 110 97 104 110 130 150 172 232 270 279 279 284 297 258 243 240 241 243 242 242 239 241 237 230 230 233 234 233 219 217 213 212 210 203 202 197 194
286 297 312 236 158 116 107 103 99 98 99 88 59 327 308 301 299 298 282 287 273 256 249 248 246 248 250 247 241 237 234 236 234 231 228 221 219 214 213 211 214 206 203 205
233 259 201 193 160 142 126 108 96 98 93 54 20 353 338 333 330 319 298 294 300 275 258 252 257 262 259 251 244 239 236 237 236 230 229 217 213 211 203 203 205 204 205 209
292 328 236 159 158 153 140 94 63 36 28 10 354 343 339 344 342 337 320 301 299 295 267 256 261 266 264 255 244 237 237 237 236 232 228 221 214 214 212 206 208 210 215 218
185 137 114 161 191 180 173 140 96 49 18 360 344 334 327 322 324 329 328 315 293 288 287 277 265 263 263 256 250 242 240 239 237 236 232 225 223 219 217 221 223 223 225 226
184 235 256 189 183 186 197 232 282 305 318 320 320 314 312 310 307 309 311 308 303 295 295 290 275 274 266 264 257 251 242 238 236 235 232 229 225 226 228 224 225 228 230 232
198 180 169 190 196 225 272 291 297 293 295 301 303 304 306 308 305 305 305 300 299 298 293 286 284 276 266 265 263 257 250 239 237 234 227 224 225 232 224 226 230 233 235 237
236 254 243 217 234 270 292 299 301 302 302 302 303 303 302 299 309 308 300 293 292 297 301 298 291 272 267 264 261 261 255 243 231 229 226 228 232 233 228 232 236 239 242 244
264 256 266 262 269 279 286 293 300 301 302 303 305 305 304 299 299 295 297 295 292 296 303 296 284 270 263 264 262 261 257 249 239 233 231 233 235 235 236 240 243 245 247 245
280 280 279 279 282 288 295 303 311 317 318 315 314 313 312 307 302 300 297 293 292 297 300 299 283 262 258 263 263 257 255 252 248 246 241 240 238 239 240 244 247 248 249 247
244 234 230 271 335 348 348 343 336 331 331 335 338 336 332 322 313 308 306 307 302 302 297 291 280 268 259 259 263 264 260 255 256 254 251 248 247 247 248 248 249 251 252 251
113 83 51 25 5 346 337 337 337 337 338 337 336 339 341 345 345 336 324 314 305 303 299 294 285 270 263 262 264 265 265 264 263 260 259 258 256 255 255 256 256 257 257 255
112 90 58 28 3 353 344 343 343 343 343 343 343 343 342 341 340 345 344 335 332 323 317 311 299 286 278 271 268 265 265 267 268 267 267 266 265 265 264 263 263 263 262 260
162 38 11 360 349 338 333 337 339 339 342 344 346 350 354 351 345 342 344 337 337 337 337 331 324 311 299 289 282 278 275 272 271 272 272 273 272 271 270 270 270 268 265 263
195 317 327 330 327 327 330 333 336 339 342 346 347 344 345 349 349 341 335 334 334 334 335 332 329 325 321 314 305 294 288 284 281 278 276 274 273 273 272 271 271 270 268 266
182 294 301 317 321 319 323 330 334 334 338 340 339 338 336 336 337 336 336 335 333 331 330 329 325 323 321 317 310 307 302 295 290 286 282 279 276 275 275 274 273 273 272 268
182 286 299 313 313 313 321 327 329 329 331 333 333 330 330 328 327 325 324 323 324 323 323 322 321 319 318 316 311 308 303 299 295 290 285 283 281 279 277 276 275 274 272 271
252 289 302 307 310 313 321 325 324 324 325 325 329 329 327 326 325 322 321 320 318 318 317 316 315 313 313 312 310 307 304 300 296 292 290 287 283 280 278 277 276 275 273 270
Height
1437 1435 1432 1433 1442 1451 1467 1460 1461 1455 1460 1447 1445 1444 1444 1445 1447 1449 1453 1456 1458 1460 1463 1466 1468 1470 1472 1474 1476 1477 1478 1478 1478 1478 1480 1480 1478 1479 1479 1479 1480 1481 1482 1483
1437 1433 1434 1438 1439 1444 1446 1451 1456 1453 1454 1446 1444 1444 1445 1445 1447 1450 1452 1455 1457 1459 1462 1464 1467 1469 1471 1472 1474 1474 1475 1476 1476 1476 1477 1477 1476 1477 1477 1478 1478 1479 1480 1481
1445 1435 1436 1442 1438 1440 1445 1445 1447 1452 1445 1443 1444 1444 1443 1444 1447 1450 1452 1454 1456 1457 1460 1463 1465 1467 1469 1470 1471 1472 1473 1474 1474 1475 1475 1476 1475 1476 1476 1477 1477 1478 1479 1479
1444 1440 1446 1431 1431 1432 1438 1438 1440 1439 1441 1441 1441 1441 1443 1444 1447 1449 1451 1452 1454 1456 1458 1460 1463 1464 1466 1467 1468 1469 1471 1471 1472 1473 1474 1474 1474 1474 1475 1475 1476 1478 1478 1479
1449 1449 1437 1429 1430 1433 1435 1437 1435 1438 1439 1439 1440 1442 1443 1444 1447 1448 1449 1451 1452 1454 1455 1457 1459 1461 1463 1465 1466 1467 1468 1469 1470 1470 1471 1472 1472 1473 1474 1475 1476 1477 1478 1479
1447 1440 1432 1432 1430 1430 1431 1440 1431 1432 1435 1438 1440 1446 1445 1445 1445 1447 1448 1448 1449 1450 1450 1452 1454 1457 1460 1461 1462 1463 1465 1466 1467 1467 1468 1470 1471 1472 1474 1475 1476 1476 1478 1480
1441 1447 1439 1434 1432 1432 1438 1440 1431 1432 1434 1437 1441 1442 1444 1445 1445 1446 1446 1446 1445 1445 1446 1447 1451 1454 1456 1458 1459 1461 1462 1463 1464 1465 1467 1468 1469 1471 1472 1473 1474 1476 1478 1480
1446 1446 1445 1435 1434 1435 1436 1432 1432 1433 1436 1438 1439 1441 1443 1444 1444 1444 1444 1444 1444 1444 1445 1447 1449 1452 1453 1455 1457 1458 1459 1460 1462 1463 1464 1466 1467 1469 1470 1471 1473 1475 1477 1479
1444 1443 1438 1436 1435 1434 1433 1434 1434 1435 1437 1439 1440 1442 1443 1443 1444 1444 1444 1443 1443 1444 1445 1446 1447 1449 1450 1452 1453 1455 1456 1457 1459 1461 1460 1463 1465 1466 1468 1470 1472 1474 1476 1479
1441 1438 1437 1436 1436 1435 1435 1435 1436 1437 1438 1440 1441 1441 1442 1443 1443 1442 1442 1441 1441 1442 1443 1443 1445 1447 1448 1449 1450 1451 1453 1454 1456 1457 1459 1460 1462 1464 1466 1468 1470 1473 1475 1477
1441 1438 1437 1436 1436 1436 1436 1437 1437 1438 1439 1439 1440 1440 1441 1442 1441 1440 1440 1438 1438 1439 1440 1441 1443 1444 1445 1445 1446 1448 1449 1451 1452 1454 1455 1457 1459 1461 1463 1466 1469 1472 1474 1476
1441 1436 1436 1436 1436 1437 1438 1438 1439 1439 1440 1440 1440 1440 1440 1440 1439 1438 1438 1438 1437 1438 1438 1439 1440 1440 1441 1441 1442 1444 1445 1447 1449 1451 1452 1454 1456 1458 1461 1464 1467 1469 1471 1473
1437 1436 1436 1437 1438 1439 1439 1439 1440 1440 1439 1440 1440 1440 1439 1438 1438 1437 1437 1436 1436 1436 1436 1436 1437 1437 1437 1438 1438 1440 1441 1443 1445 1447 1448 1451 1453 1455 1457 1461 1463 1465 1468 1470
1436 1437 1437 1438 1438 1439 1439 1439 1439 1439 1439 1439 1439 1438 1438 1437 1437 1436 1435 1435 1434 1434 1434 1434 1434 1434 1435 1435 1435 1436 1437 1439 1441 1442 1445 1447 1449 1452 1455 1458 1460 1463 1465 1466
1436 1436 1437 1437 1438 1438 1439 1439 1438 1438 1438 1438 1437 1437 1436 1436 1435 1435 1434 1433 1433 1432 1432 1431 1431 1431 1431 1432 1432 1432 1433 1434 1437 1439 1441 1443 1446 1449 1451 1455 1457 1459 1461 1462
1437 1437 1437 1437 1437 1438 1438 1437 1437 1437 1437 1437 1436 1435 1434 1434 1433 1432 1431 1430 1430 1429 1429 1428 1428 1428 1428 1428 1428 1428 1429 1430 1432 1434 1437 1439 1442 1445 1447 1450 1452 1455 1456 1458
1435 1436 1437 1437 1437 1436 1436 1436 1436 1435 1435 1434 1433 1432 1431 1430 1430 1429 1428 1427 1426 1426 1425 1425 1425 1424 1424 1423 1423 1425 1425 1427 1428 1430 1432 1435 1438 1439 1442 1445 1447 1449 1450 1453
1434 1434 1434 1435 1435 1434 1434 1434 1433 1432 1431 1430 1430 1428 1427 1426 1426 1425 1424 1423 1423 1422 1421 1420 1420 1419 1420 1420 1420 1421 1421 1423 1424 1425 1428 1430 1432 1435 1437 1439 1441 1442 1445 1447
1433 1433 1433 1433 1433 1432 1432 1431 1431 1429 1428 1427 1426 1425 1424 1423 1422 1421 1420 1418 1417 1417 1417 1415 1414 1414 1415 1416 1416 1416 1417 1418 1419 1421 1422 1424 1426 1427 1430 1432 1434 1435 1438 1440
1431 1431 1431 1431 1431 1431 1430 1430 1429 1428 1427 1426 1425 1423 1422 1420 1419 1417 1416 1415 1414 1412 1411 1411 1410 1410 1411 1412 1412 1412 1412 1413 1414 1415 1416 1417 1419 1421 1422 1424 1425 1427 1429 1430
1431 1432 1432 1432 1431 1431 1430 1430 1428 1427 1426 1425 1423 1422 1421 1419 1417 1415 1414 1412 1411 1410 1409 1408 1406 1406 1407 1407 1407 1407 1407 1408 1408 1408 1409 1410 1411 1412 1414 1415 1417 1418 1419 1421
1432 1432 1432 1432 1431 1431 1430 1429 1428 1427 1425 1424 1422 1421 1420 1418 1416 1415 1413 1411 1409 1408 1406 1404 1403 1402 1402 1402 1402 1402 1402 1402 1402 1402 1402 1402 1403 1403 1404 1406 1406 1408 1409 1410
1432 1432 1432 1431 1431 1430 1430 1429 1427 1426 1425 1423 1422 1420 1419 1416 1415 1414 1412 1411 1408 1406 1404 1402 1400 1399 1398 1397 1396 1396 1395 1395 1395 1395 1395 1395 1394 1395 1395 1395 1396 1397 1397 1398
1431 1432 1431 1431 1430 1430 1429 1428 1427 1426 1424 1422 1421 1419 1418 1417 1415 1413 1411 1409 1406 1404 1402 1400 1398 1396 1394 1393 1391 1390 1389 1389 1388 1387 1387 1387 1386 1386 1386 1386 1385 1386 1386 1387
1429 1431 1431 1430 1429 1429 1428 1427 1426 1425 1423 1422 1420 1419 1417 1415 1413 1411 1409 1406 1404 1402 1399 1397 1395 1393 1391 1389 1387 1385 1384 1383 1382 1381 1380 1379 1378 1377 1377 1377 1376 1376 1376 1376
1427 1429 1429 1429 1428 1427 1427 1426 1425 1423 1422 1421 1420 1418 1416 1414 1412 1409 1407 1404 1402 1399 1396 1394 1391 1389 1387 1385 1383 1381 1379 1377 1376 1374 1373 1372 1371 1370 1369 1368 1367 1367 1367 1366
1425 1426 1427 1427 1426 1426 1425 1424 1423 1422 1421 1419 1417 1416 1414 1411 1409 1406 1403 1401 1398 1395 1393 1390 1387 1384 1382 1380 1378 1376 1374 1372 1370 1368 1367 1365 1363 1362 1361 1360 1359 1358 1358 1358